Location: Gubel
(47.1620°N, 8.5743°E)
Time: 23:24:51
(UTC+00:00)

Daily predictions for brighter satellites

Satellite Brightness Start Highest point End
(mag) Time Altitude Azimuth Time Altitude Azimuth Time Altitude Azimuth
Cosmos 2360 4.5 16:02:44 10° NNW 16:08:17 47° NE 16:13:48 10° SE
Lacrosse 5 rocket 2.7 16:08:22 10° NW 16:11:23 21° NNE 16:14:30 10° ENE
Cosmos 1743 Rocket 3.8 16:07:29 10° N 16:11:41 46° ENE 16:15:50 10° SSE
Meteor 1-20 Rocket 4.5 16:06:02 10° N 16:11:43 51° ENE 16:17:24 10° SSE
Okean O Rocket 3.3 16:12:55 10° E 16:15:16 14° ENE 16:17:37 10° NNE
USA 267 3.4 16:14:27 10° NE 16:21:01 76° SE 16:27:33 10° SW
H-2A R/B 2.7 16:19:28 10° SE 16:23:56 31° ENE 16:28:19 10° N
SJ 16-02 3.8 16:21:36 10° NW 16:25:16 27° W 16:28:56 10° SSW
Cosmos 1763 Rocket 3.5 16:22:18 10° S 16:27:19 67° ESE 16:32:25 10° NNE
CZ-4B R/B 2.9 16:24:09 10° SSE 16:28:13 87° WSW 16:32:05 10° NNW
USA 276 3.7 16:26:18 10° W 16:29:13 37° SSW 16:32:08 10° SE
USA 305 3.9 16:25:28 10° WNW 16:29:18 32° N 16:32:46 12° ENE
Cosmos 1656 4.3 16:25:39 10° NNW 16:31:07 61° WSW 16:36:37 10° S
Cosmos 1933 3.6 16:29:30 10° SSE 16:33:23 48° E 16:37:17 10° NNE
Cosmos 841 Rocket 4.1 16:29:12 10° SSE 16:33:51 35° ESE 16:38:29 10° NE
PSLV R/B 4.2 16:31:02 10° SE 16:34:25 36° ENE 16:37:52 10° N
Cosmos 1464 Rocket 4.5 16:29:06 10° SSW 16:35:27 68° WNW 16:41:49 10° N
USA 229 DEB 4.0 16:28:47 10° NW 16:36:09 88° SW 16:43:59 10° SE
USA 229 4.0 16:28:53 10° NW 16:36:15 88° SW 16:44:04 10° SE
Cosmos 1937 Rocket 3.5 16:32:11 10° NNW 16:37:30 63° ENE 16:42:46 10° SSE
Cosmos 1500 Rocket 3.6 16:35:46 10° N 16:40:13 84° W 16:44:38 10° S
Cosmos 1666 3.8 16:37:36 10° NNE 16:40:29 21° ENE 16:43:21 10° ESE
Nadezhda 4 Rocket 4.3 16:35:44 10° NNW 16:42:03 73° W 16:48:20 10° S
SL-24 R/B - RUBIN 2 3.7 16:38:32 10° NNW 16:43:01 50° NE 16:47:14 10° ESE
ATLAS 2AS CENTAUR R/B 4.3 16:38:07 10° WNW 16:44:09 24° NNW 16:49:56 10° NE
Cosmos 2322 Rocket 3.7 16:40:39 10° N 16:44:11 16° NE 16:45:58 14° ENE
Cosmos 990 Rocket 4.5 16:39:15 10° NNW 16:44:24 64° WSW 16:49:29 10° S
FengYun 1-2 T 4.4 16:40:15 10° SSE 16:45:50 82° WSW 16:51:26 10° NNW
Cosmos 1697 Rocket 2.7 16:41:11 10° NNW 16:46:50 88° WSW 16:52:27 10° SSE
Cosmos 372 Rocket 4.1 16:43:35 10° NNW 16:48:42 51° ENE 16:53:48 10° SE
NOAA 6 4.0 16:44:05 10° SSE 16:49:14 89° ENE 16:54:24 10° NNW
Sich 1 3.0 16:45:44 10° N 16:49:58 58° ENE 16:54:13 10° SSE
Cosmos 1980 Rocket 2.3 16:45:34 10° NNW 16:51:10 56° ENE 16:56:41 10° SE
Cosmos 2221 4.0 16:47:47 10° SW 16:51:45 37° WNW 16:55:48 10° N
Cosmos 1805 Rocket 3.4 16:47:38 10° N 16:51:59 78° E 16:56:19 10° SSE
Cosmos 2369 3.7 16:47:21 10° NNW 16:53:07 72° ENE 16:58:49 10° SE
USA 234 3.3 16:48:27 10° SE 16:55:01 85° SW 17:01:35 10° NW
CZ-4C R/B 3.0 16:50:40 10° NW 16:57:35 57° NE 17:05:44 10° ESE
Cosmos 1092 Rocket 4.0 16:51:36 10° N 16:58:00 90° ENE 17:04:20 10° S
Cosmos 1812 3.3 16:56:54 10° SSE 17:00:25 35° E 17:02:42 18° NE
Cosmos 1428 Rocket 4.4 16:54:34 10° N 17:00:44 83° E 17:06:54 10° S
USA 306 3.9 16:57:45 10° WNW 17:01:36 32° N 17:03:35 21° NE
SL-16 R/B 3.2 16:57:44 10° N 17:02:20 25° NE 17:04:16 21° ENE
ISS -3.8 16:59:42 10° WNW 17:03:06 76° NNE 17:04:59 24° ESE
deb Chang Zheng 4 3.9 17:00:38 10° SE 17:04:41 42° ENE 17:08:47 10° N
MOS 1-B Rocket 4.2 16:59:09 10° NNE 17:04:57 55° ESE 17:11:31 10° S
NOSS 2-2 (D) 4.3 17:00:07 10° NW 17:05:15 79° NE 17:12:29 10° SE
SMAP 3.5 17:00:40 10° S 17:05:16 64° WSW 17:09:55 10° NNW
NOSS 2-2 (E) 4.4 17:00:17 10° NW 17:05:36 89° SW 17:13:07 10° SE
Cosmos 2082 Rocket 2.3 17:00:49 10° S 17:06:20 55° ESE 17:10:43 16° NE
Cosmos 1939 Rocket 3.8 17:02:32 10° S 17:06:33 52° W 17:10:33 10° NNW
CORIOLIS 4.4 17:02:49 10° S 17:08:12 73° WSW 17:13:40 10° NNW
Cosmos 44 Rocket 3.9 17:07:52 10° NNW 17:12:28 36° NE 17:14:23 26° E
Cosmos 2333 Rocket 4.2 17:10:37 10° N 17:12:25 12° NNE 17:12:25 12° NNE
CZ-4B DEB 4.4 17:09:03 10° S 17:14:34 75° WSW 17:20:05 10° NNW
Meteor 2-16 Rocket 4.4 17:08:31 10° N 17:14:36 61° ENE 17:20:38 10° SSE
Cosmos 2278 3.7 17:11:29 10° NNW 17:17:11 64° ENE 17:22:49 10° SE
Cosmos 2142 Rocket 4.4 17:12:25 10° S 17:18:27 63° E 17:24:36 10° NNE
USA 307 3.9 17:16:34 10° WNW 17:20:27 33° N 17:21:38 28° NE
Cosmos 540 Rocket 3.6 17:16:14 10° SSW 17:21:19 74° WNW 17:26:07 12° NNE
ARGOS 3.1 17:19:23 10° SSE 17:24:43 62° ENE 17:30:03 10° N
Cosmos 1570 Rocket 4.1 17:20:55 10° S 17:25:59 52° ESE 17:28:35 27° NE
Cosmos 2279 Rocket 3.9 17:19:53 10° S 17:26:02 68° E 17:32:12 10° NNE
COSMO-SKYMED 1 2.6 17:23:24 22° NNE 17:26:02 57° E 17:30:18 10° S
Cosmos 2298 Rocket 4.5 17:22:06 10° N 17:27:05 39° ENE 17:28:50 30° E
COSMOS 2406 3.5 17:21:23 10° SW 17:27:06 68° WNW 17:32:10 14° NNE
Cosmos 1833 Rocket 3.4 17:23:00 10° SW 17:28:29 52° WNW 17:33:42 12° NNE
Cosmos 1782 3.3 17:25:35 10° SSW 17:29:31 60° WNW 17:33:29 10° N
Cosmos 2266 Rocket 4.3 17:23:50 10° N 17:29:56 44° ENE 17:36:01 10° SE
Cosmos 1814 Rocket 3.9 17:25:38 10° S 17:30:49 66° ESE 17:33:44 26° NNE
ATLAS 5 CENTAUR R/B 2.3 17:25:43 10° NW 17:32:42 43° NNE 17:33:08 41° NE
Cosmos 921 Rocket 4.1 17:30:19 10° SSE 17:32:43 26° SE 17:32:43 26° SE
Helios 1B 4.5 17:32:06 26° NNE 17:34:26 68° ESE 17:38:45 10° S
Cosmos 1633 Rocket 2.9 17:30:47 10° N 17:35:10 79° E 17:39:33 10° SSE
ATLAS CENTAUR R/B 4.1 17:35:42 10° NNW 17:36:10 10° NNW 17:36:38 10° N
Cosmos 1818 3.6 17:31:12 10° NNW 17:36:37 57° NE 17:38:50 34° ESE
YAOGAN 1 4.1 17:39:35 21° NNE 17:39:35 21° NNE 17:41:13 10° N
Cosmos 2219 Rocket 4.2 17:35:20 10° N 17:36:28 12° NNE 17:36:28 12° NNE
GEOS 3 Rocket 3.8 17:37:58 38° E 17:39:31 50° NE 17:44:31 10° NNW
CZ-2D R/B 4.4 17:36:23 10° S 17:40:03 44° W 17:43:44 10° NNW
Meteor 2-6 Rocket 4.2 17:35:16 10° S 17:40:57 65° E 17:45:14 17° NNE
SJ-11-01 4.2 17:37:56 10° SSE 17:42:41 88° ENE 17:47:28 10° NNW
Cosmos 1634 Rocket 4.5 17:36:50 10° SSW 17:43:05 62° WNW 17:49:24 10° N
USA 308 3.7 17:39:10 10° WNW 17:43:06 35° N 17:43:13 35° NNE
COSMOS 2455 3.0 17:38:27 10° SW 17:44:28 74° NW 17:48:14 24° NNE
CZ-2C R/B 2.4 17:40:35 12° NNE 17:45:27 86° ESE 17:50:37 10° SSW
CZ-4B R/B 3.3 17:41:31 10° S 17:46:56 73° WSW 17:52:18 10° NNW
Cosmos 1151 Rocket 3.1 17:44:12 10° SSW 17:48:31 74° W 17:51:27 20° N
Okean O Rocket 1.7 17:46:34 10° S 17:51:01 78° WSW 17:55:30 10° NNW
Lacrosse 5 rocket 1.6 17:47:15 10° NW 17:50:36 50° N 17:50:36 50° N
Meteor 2-15 4.3 17:52:17 10° S 17:58:21 74° E 18:03:29 15° NNE
Cosmos 2208 Rocket 3.9 17:54:35 10° SSW 17:59:59 81° ESE 18:01:39 46° NNE
Meteor 1-10 Rocket 4.1 17:57:05 10° S 18:02:49 71° E 18:04:52 41° NNE
Meteor 1-11 Rocket 3.6 17:57:36 10° N 18:03:11 65° ENE 18:05:46 33° SSE
H-2A R/B 3.4 17:58:26 10° SSW 18:03:16 39° W 18:08:00 10° NNW
USA 267 3.8 18:01:03 32° NE 18:03:51 50° NNW 18:10:06 10° W
Cosmos 1470 Rocket 3.5 17:59:46 10° N 18:04:15 88° W 18:08:43 10° S
Cosmos 2150 Rocket 3.8 17:59:26 10° NNW 18:04:38 70° ENE 18:04:48 69° E
Cosmos 1328 Rocket 3.8 18:01:37 10° SSW 18:06:02 69° W 18:07:30 41° N
Cosmos 1655 Rocket 3.9 17:59:56 10° N 18:06:23 83° E 18:12:45 10° S
Landsat 5 3.5 18:08:42 72° W 18:08:42 72° W 18:12:31 10° SSW
Cosmos 2360 Rocket 3.5 18:04:08 10° NNW 18:07:10 26° NNE 18:07:10 26° NNE
USA 305 4.0 18:05:48 10° NW 18:08:46 35° NNW 18:08:46 35° NNW
SKYMED 2 4.5 18:12:00 26° NNW 18:14:05 47° WNW 18:18:14 10° SW
Feng Yun 1-1 Rocket 4.4 18:10:25 10° SSE 18:16:22 79° WSW 18:22:15 10° NNW
ATLAS CENTAUR R/B 3.2 18:13:37 10° W 18:20:20 37° NW 18:20:43 36° NNW
Cosmos 1125 Rocket 3.5 18:17:27 10° NNW 18:22:15 74° NNW 18:22:15 74° NNW
Cosmos 2322 Rocket 2.7 18:23:38 10° NNW 18:27:49 48° N 18:27:49 48° N
Cosmos 1980 Rocket 4.3 18:30:13 10° NW 18:34:46 25° WSW 18:39:18 10° SSW
ATLAS 2AS CENTAUR R/B 4.1 18:31:46 10° NW 18:37:27 25° NNE 18:37:27 25° NNE
ISS -0.7 18:36:56 10° W 18:37:59 16° W 18:37:59 16° W
CZ-4C R/B 3.9 18:39:17 10° NW 18:46:17 46° WSW 18:54:16 10° S
SL-16 R/B 2.6 18:41:20 10° NNW 18:46:11 60° WNW 18:46:11 60° WNW
Cosmos 2082 Rocket 3.8 18:45:49 10° WSW 18:50:45 29° NW 18:52:35 24° NNW
Cosmos 2333 Rocket 4.3 18:53:05 10° NNW 18:54:27 17° N 18:54:27 17° N
